User: anonymous   Login
Location: Unspecified
(0.0000°N, 0.0000°E)
Time: 09:03:57
(UTC+02:00)
Language:

Ariane H10 - Orbit

View from above orbital plane
View from above orbital plane
View from above satellite
View from above satellite

Ground track
Ground track

The orbit data is extracted from the following two-line orbital elements,

1 19622U 88098B   14297.75031684  .00003351  00000-0  12615-2 0  9146
2 19622 003.9349 094.3271 6452364 037.3192 250.3009 03.35773274271326
Epoch (UTC): 24 October 2014 18:00:27
Eccentricity: 0.6452364
inclination: 3.9349°
perigee height: 305 km
apogee height: 24615 km
right ascension of ascending node: 94.3271°
argument of perigee: 37.3192°
revolutions per day: 3.35773274
mean anomaly at epoch: 250.3009°
orbit number at epoch: 27132

The dashed part of the orbit path shows where the satellite is in the earth's shadow,  

DLR